Pittsfield, MA

1:18 AM EST on December 06, 2019 (GMT -0500)
Pittsfield Municipal

Weather History for KPSF - November, 2019

Change the Weather History Date:

Tuesday, November 12, 2019

  Actual Average Record
Temperature  
Mean Temperature 29 °F 39 °F  
Max Temperature 43 °F 49 °F 68 °F (1931)
Min Temperature 15 °F 30 °F 16 °F (1933)
Degree Days  
Heating Degree Days 36 26  
Month to date heating degree days 338 290  
Since 1 July heating degree days 941 1126  
Cooling Degree Days 0 0  
Month to date cooling degree days 0 0  
Year to date cooling degree days 416 290  
Moisture  
Dew Point 22 °F    
Average Humidity 78    
Maximum Humidity 93    
Minimum Humidity 54    
Precipitation  
Precipitation 0.10 in 0.11 in 1.72 in (1947)
Month to date precipitation 1.16 1.53  
Year to date precipitation 40.72 39.98  
Sea Level Pressure  
Sea Level Pressure 29.81 in    
Wind  
Wind Speed 9 mph ()    
Max Wind Speed 25 mph    
Max Gust Speed 35 mph    
Visibility 7.5 miles    
Events Fog , Rain , Snow    
T = Trace of Precipitation, MM = Missing Value Source: Averaged Metar Reports

Daily Weather History Graph

Daily Weather History Graph

Search for Another Location

Airport or City:

Astronomy

Nov. 12, 2019 Rise Set
Actual Time 6:40 AM EST 4:33 PM EST
Civil Twilight 6:10 AM EST 5:04 PM EST
Nautical Twilight 5:36 AM EST 5:37 PM EST
Astronomical Twilight 5:03 AM EST 6:10 PM EST
Moon 5:00 PM EST (11/12) 6:27 AM EST (11/12)
Length of Visible Light 10h 53m
Length of Day
9h 53m
Full, 100% of the Moon is Illuminated
Nov 12
Full
Nov 19
Last Quarter
Nov 26
New
Dec 4
First Quarter
Dec 12
Full

Hourly Weather History & Observations

Time (EST) Temp. Windchill Dew Point Humidity Pressure Visibility Wind Dir Wind Speed Gust Speed Precip Events Conditions
12:54 AM 41.0 °F - 36.0 °F 82% 29.76 in 10.0 mi Calm Calm - N/A   Overcast
1:54 AM 42.1 °F 39.2 °F 37.0 °F 82% 29.69 in 10.0 mi NNE 4.6 mph - N/A   Overcast
2:29 AM 42.1 °F - 37.0 °F 82% 29.70 in 10.0 mi Calm Calm - N/A   Overcast
2:54 AM 42.1 °F 40.2 °F 37.0 °F 82% 29.68 in 9.0 mi North 3.5 mph - N/A   Overcast
4:18 AM 42.1 °F 39.2 °F 39.0 °F 89% 29.64 in 7.0 mi NE 4.6 mph - 0.00 in Rain Light Rain
4:34 AM 42.1 °F - 39.0 °F 89% 29.66 in 7.0 mi Calm Calm - 0.01 in Rain Light Rain
4:44 AM 42.1 °F 39.2 °F 39.0 °F 89% 29.64 in 6.0 mi NNE 4.6 mph - 0.01 in Rain Light Rain
4:54 AM 42.1 °F 40.2 °F 39.0 °F 89% 29.63 in 6.0 mi NE 3.5 mph - 0.01 in Rain Light Rain
5:01 AM 42.1 °F 39.2 °F 39.0 °F 89% 29.63 in 5.0 mi North 4.6 mph - 0.00 in Rain Light Rain
5:21 AM 42.1 °F - 39.9 °F 92% 29.64 in 4.0 mi Calm Calm - 0.00 in Rain Light Rain
5:54 AM 36.0 °F 26.0 °F 34.0 °F 93% 29.66 in 5.0 mi West 17.3 mph - 0.01 in Rain Light Rain
6:06 AM 33.1 °F 23.4 °F 30.9 °F 92% 29.67 in 6.0 mi West 13.8 mph - 0.00 in Rain Light Rain
6:24 AM 32.0 °F 21.2 °F 28.9 °F 88% 29.69 in 9.0 mi WSW 16.1 mph - 0.00 in Rain Light Freezing Rain
6:52 AM 30.2 °F 19.3 °F 28.4 °F 93% 29.70 in 9.0 mi West 15.0 mph 20.7 mph 0.01 in Rain Light Freezing Rain
6:54 AM 30.9 °F 22.2 °F 28.0 °F 89% 29.71 in 10.0 mi WNW 10.4 mph 20.7 mph 0.01 in Rain Light Freezing Rain
7:23 AM 32.0 °F 21.2 °F 27.0 °F 82% 29.72 in 6.0 mi WNW 16.1 mph - 0.01 in Snow Light Snow
7:30 AM 30.9 °F 20.7 °F 27.0 °F 85% 29.73 in 1.8 mi West 13.8 mph 24.2 mph 0.01 in Snow Light Snow
7:47 AM 30.9 °F 20.7 °F 27.0 °F 85% 29.74 in 0.8 mi West 13.8 mph - 0.01 in Snow Light Snow
7:54 AM 30.0 °F 20.0 °F 26.1 °F 85% 29.76 in 0.8 mi WNW 12.7 mph 25.3 mph 0.02 in Snow Light Snow
8:19 AM 28.9 °F 17.7 °F 26.1 °F 89% 29.75 in 0.2 mi West 15.0 mph 23.0 mph 0.00 in Fog , Snow Heavy Snow
8:35 AM 28.0 °F 16.1 °F 24.1 °F 85% 29.76 in 0.5 mi West 16.1 mph 25.3 mph 0.01 in Fog , Snow Snow
8:54 AM 27.0 °F 15.6 °F 23.0 °F 85% 29.79 in 0.2 mi West 13.8 mph - 0.02 in Fog , Snow Snow
9:21 AM 26.1 °F 14.0 °F 21.9 °F 84% 29.77 in 1.2 mi WNW 15.0 mph 23.0 mph 0.01 in Snow Light Snow
9:33 AM 26.1 °F 14.0 °F 21.0 °F 81% 29.77 in 6.0 mi WNW 15.0 mph 20.7 mph 0.01 in Snow Light Snow
9:54 AM 25.0 °F 13.1 °F 21.0 °F 85% 29.80 in 10.0 mi WNW 13.8 mph - 0.02 in   Overcast
10:12 AM 25.0 °F 10.9 °F 21.0 °F 85% 29.78 in 5.0 mi WNW 19.6 mph 26.5 mph 0.00 in Snow Light Snow
10:54 AM 23.0 °F 10.1 °F 19.0 °F 85% 29.83 in 10.0 mi WNW 15.0 mph 26.5 mph 0.01 in   Overcast
11:54 AM 21.9 °F 7.3 °F 17.1 °F 82% 29.84 in 10.0 mi WNW 18.4 mph 25.3 mph N/A   Overcast
12:54 PM 21.9 °F 5.8 °F 16.0 °F 78% 29.86 in 10.0 mi WNW 23.0 mph 31.1 mph N/A   Overcast
1:31 PM 21.9 °F 7.8 °F 15.1 °F 75% 29.85 in 10.0 mi WNW 17.3 mph 33.4 mph N/A   Overcast
1:54 PM 21.9 °F 7.8 °F 15.1 °F 75% 29.88 in 10.0 mi WNW 17.3 mph 28.8 mph N/A   Overcast
2:54 PM 21.9 °F 6.9 °F 14.0 °F 72% 29.90 in 10.0 mi WNW 19.6 mph 27.6 mph N/A   Mostly Cloudy
3:54 PM 23.0 °F 13.1 °F 14.0 °F 68% 29.92 in 10.0 mi WNW 9.2 mph - N/A   Mostly Cloudy
4:14 PM 23.0 °F 10.1 °F 12.9 °F 65% 29.90 in 10.0 mi WNW 15.0 mph 26.5 mph N/A   Scattered Clouds
4:33 PM 23.0 °F 10.6 °F 12.9 °F 65% 29.90 in 10.0 mi NW 13.8 mph 23.0 mph N/A   Mostly Cloudy
4:47 PM 23.0 °F 10.1 °F 12.9 °F 65% 29.91 in 10.0 mi WNW 15.0 mph 23.0 mph N/A   Overcast
4:54 PM 21.9 °F 7.8 °F 12.9 °F 68% 29.94 in 10.0 mi WNW 17.3 mph 23.0 mph N/A   Overcast
5:39 PM 21.0 °F 6.2 °F 10.9 °F 65% 29.93 in 10.0 mi WNW 18.4 mph 27.6 mph N/A   Mostly Cloudy
5:54 PM 21.0 °F 4.3 °F 10.9 °F 65% 29.97 in 10.0 mi WNW 24.2 mph 29.9 mph N/A   Mostly Cloudy
6:01 PM 21.0 °F 7.1 °F 10.9 °F 65% 29.94 in 10.0 mi WNW 16.1 mph 29.9 mph N/A   Scattered Clouds
6:54 PM 19.9 °F 4.3 °F 8.1 °F 60% 30.00 in 10.0 mi WNW 19.6 mph 29.9 mph N/A   Clear
7:54 PM 19.0 °F 5.6 °F 7.0 °F 59% 30.02 in 10.0 mi WNW 13.8 mph 25.3 mph N/A   Clear
8:54 PM 18.0 °F 4.8 °F 7.0 °F 62% 30.04 in 10.0 mi WNW 12.7 mph - N/A   Clear
9:54 PM 17.1 °F 2.0 °F 7.0 °F 65% 30.05 in 10.0 mi WNW 16.1 mph 23.0 mph N/A   Partly Cloudy
10:54 PM 17.1 °F 0.6 °F 3.9 °F 56% 30.07 in 10.0 mi WNW 19.6 mph 28.8 mph N/A   Partly Cloudy
11:54 PM 16.0 °F 0.6 °F 3.0 °F 57% 30.07 in 10.0 mi WNW 16.1 mph 24.2 mph N/A   Clear